Allentown, PA

7:43 AM EDT on June 18, 2019 (GMT -0400)
Allentown

Weather History for KXLL - May, 2019

Change the Weather History Date:

Saturday, May 18, 2019

  Actual Average (WUND) Record (WUND)
Temperature  
Mean Temperature 66 °F -  
Max Temperature 77 °F - - (-1)
Min Temperature 55 °F - - (-1)
Cooling Degree Days 1    
Growing Degree Days 16 (Base 50)    
Moisture  
Dew Point 49 °F    
Average Humidity 57    
Maximum Humidity 83    
Minimum Humidity 33    
Precipitation  
Precipitation 0.00 in - - ()
Sea Level Pressure  
Sea Level Pressure 29.99 in    
Wind  
Wind Speed 4 mph ()    
Max Wind Speed 9 mph    
Max Gust Speed -    
Visibility 10.0 miles    
Events      
Averages and records for this station are not official NWS values.
T = Trace of Precipitation, MM = Missing Value Source: Averaged Metar Reports

Daily Weather History Graph

Daily Weather History Graph

Search for Another Location

Airport or City:

Astronomy

May. 18, 2019 Rise Set
Actual Time 5:42 AM EDT 8:14 PM EDT
Civil Twilight 5:11 AM EDT 8:45 PM EDT
Nautical Twilight 4:32 AM EDT 9:24 PM EDT
Astronomical Twilight 3:49 AM EDT 10:08 PM EDT
Moon 8:07 PM EDT 5:48 AM EDT
Length of Visible Light 15h 34m
Length of Day
14h 31m
Full, 100% of the Moon is Illuminated
May 18
Full
May 18
Full
May 26
Last Quarter
Jun 3
New
Jun 10
First Quarter

Hourly Weather History & Observations

Time (EDT) Temp. Dew Point Humidity Pressure Visibility Wind Dir Wind Speed Gust Speed Precip Events Conditions
12:15 AM 64.4 °F 57.2 °F 77% 29.88 in 10.0 mi NE 3.5 mph - N/A   Clear
12:35 AM 64.4 °F 55.4 °F 73% 29.89 in 10.0 mi Calm Calm - N/A   Clear
12:55 AM 64.4 °F 55.4 °F 73% 29.89 in 10.0 mi NNW 4.6 mph - N/A   Scattered Clouds
1:15 AM 62.6 °F 55.4 °F 77% 29.89 in 10.0 mi NNW 6.9 mph - N/A   Clear
1:35 AM 62.6 °F 55.4 °F 77% 29.89 in 10.0 mi NNW 3.5 mph - N/A   Clear
1:55 AM 62.6 °F 55.4 °F 77% 29.90 in 10.0 mi NNW 5.8 mph - N/A   Mostly Cloudy
2:15 AM 62.6 °F 53.6 °F 72% 29.89 in 10.0 mi NNW 4.6 mph - N/A   Scattered Clouds
2:35 AM 60.8 °F 53.6 °F 77% 29.89 in 10.0 mi NNW 8.1 mph - N/A   Clear
2:55 AM 60.8 °F 51.8 °F 72% 29.89 in 10.0 mi NNW 6.9 mph - N/A   Clear
3:15 AM 60.8 °F 51.8 °F 72% 29.89 in 10.0 mi NNW 5.8 mph - N/A   Scattered Clouds
3:35 AM 60.8 °F 51.8 °F 72% 29.90 in 10.0 mi North 3.5 mph - N/A   Overcast
3:55 AM 59.0 °F 51.8 °F 77% 29.91 in 10.0 mi NNW 5.8 mph - N/A   Overcast
4:15 AM 59.0 °F 50.0 °F 72% 29.91 in 10.0 mi North 6.9 mph - N/A   Mostly Cloudy
4:35 AM 59.0 °F 50.0 °F 72% 29.92 in 10.0 mi NNW 4.6 mph - N/A   Scattered Clouds
4:55 AM 59.0 °F 46.4 °F 63% 29.93 in 10.0 mi NNW 5.8 mph - N/A   Clear
5:15 AM 57.2 °F 44.6 °F 63% 29.94 in 10.0 mi North 4.6 mph - N/A   Clear
5:35 AM 57.2 °F 44.6 °F 63% 29.95 in 10.0 mi North 3.5 mph - N/A   Clear
5:55 AM 55.4 °F 42.8 °F 63% 29.96 in 10.0 mi North 6.9 mph - N/A   Clear
6:15 AM 55.4 °F 42.8 °F 63% 29.98 in 10.0 mi North 5.8 mph - N/A   Clear
6:35 AM 55.4 °F 44.6 °F 67% 29.99 in 10.0 mi North 8.1 mph - N/A   Clear
6:55 AM 57.2 °F 44.6 °F 63% 29.99 in 10.0 mi North 5.8 mph - N/A   Clear
7:15 AM 57.2 °F 44.6 °F 63% 29.99 in 10.0 mi North 5.8 mph - N/A   Clear
7:35 AM 59.0 °F 44.6 °F 59% 30.00 in 10.0 mi NNE 5.8 mph - N/A   Clear
7:55 AM 59.0 °F 44.6 °F 59% 30.01 in 10.0 mi North 5.8 mph - N/A   Clear
8:15 AM 59.0 °F 44.6 °F 59% 30.01 in 10.0 mi North 5.8 mph - N/A   Clear
8:35 AM 60.8 °F 46.4 °F 59% 30.02 in 10.0 mi NNE 6.9 mph - N/A   Clear
8:55 AM 60.8 °F 44.6 °F 55% 30.03 in 10.0 mi North 3.5 mph - N/A   Clear
9:15 AM 62.6 °F 46.4 °F 55% 30.03 in 10.0 mi NNW 8.1 mph - N/A   Clear
9:35 AM 62.6 °F 44.6 °F 52% 30.03 in 10.0 mi North 3.5 mph - N/A   Clear
9:55 AM 62.6 °F 44.6 °F 52% 30.04 in 10.0 mi North 5.8 mph - N/A   Clear
10:15 AM 62.6 °F 44.6 °F 52% 30.04 in 10.0 mi NNW 4.6 mph - N/A   Clear
10:35 AM 64.4 °F 42.8 °F 45% 30.04 in 10.0 mi Calm Calm - N/A   Clear
10:55 AM 64.4 °F 42.8 °F 45% 30.04 in 10.0 mi WSW 3.5 mph - N/A   Clear
11:15 AM 66.2 °F 44.6 °F 46% 30.04 in 10.0 mi Calm Calm - N/A   Clear
11:35 AM 68.0 °F 42.8 °F 40% 30.04 in 10.0 mi SW 3.5 mph - N/A   Clear
11:55 AM 69.8 °F 42.8 °F 38% 30.04 in 10.0 mi NNW 4.6 mph - N/A   Clear
12:15 PM 69.8 °F 44.6 °F 40% 30.04 in 10.0 mi WNW 5.8 mph - N/A   Clear
12:35 PM 69.8 °F 42.8 °F 38% 30.03 in 10.0 mi Calm Calm - N/A   Clear
12:55 PM 69.8 °F 44.6 °F 40% 30.04 in 10.0 mi South 3.5 mph - N/A   Clear
1:15 PM 71.6 °F 42.8 °F 35% 30.03 in 10.0 mi WSW 6.9 mph - N/A   Clear
1:35 PM 71.6 °F 44.6 °F 38% 30.02 in 10.0 mi West 4.6 mph - N/A   Scattered Clouds
1:55 PM 71.6 °F 42.8 °F 35% 30.02 in 10.0 mi West 6.9 mph - N/A   Mostly Cloudy
2:15 PM 73.4 °F 42.8 °F 33% 30.01 in 10.0 mi Calm Calm - N/A   Scattered Clouds
2:35 PM 73.4 °F 44.6 °F 36% 30.00 in 10.0 mi WSW 5.8 mph - N/A   Clear
2:55 PM 73.4 °F 46.4 °F 38% 30.00 in 10.0 mi SSW 5.8 mph - N/A   Clear
3:15 PM 73.4 °F 44.6 °F 36% 29.99 in 10.0 mi SSW 6.9 mph - N/A   Clear
3:35 PM 75.2 °F 46.4 °F 36% 29.98 in 10.0 mi SSW 5.8 mph - N/A   Clear
3:55 PM 73.4 °F 46.4 °F 38% 29.99 in 10.0 mi WSW 3.5 mph - N/A   Clear
4:15 PM 75.2 °F 46.4 °F 36% 29.99 in 10.0 mi SW 9.2 mph - N/A   Clear
4:35 PM 75.2 °F 48.2 °F 38% 29.99 in 10.0 mi SW 5.8 mph - N/A   Mostly Cloudy
4:55 PM 75.2 °F 50.0 °F 41% 29.99 in 10.0 mi SSW 6.9 mph - N/A   Mostly Cloudy
5:15 PM 77.0 °F 50.0 °F 39% 29.99 in 10.0 mi West 4.6 mph - N/A   Scattered Clouds
5:35 PM 77.0 °F 51.8 °F 41% 29.99 in 10.0 mi WSW 4.6 mph - N/A   Clear
5:55 PM 75.2 °F 51.8 °F 44% 29.98 in 10.0 mi WSW 4.6 mph - N/A   Mostly Cloudy
6:15 PM 73.4 °F 53.6 °F 50% 29.99 in 10.0 mi WSW 4.6 mph - N/A   Overcast
6:35 PM 73.4 °F 51.8 °F 47% 29.99 in 10.0 mi SSW 5.8 mph - N/A   Mostly Cloudy
6:55 PM 73.4 °F 53.6 °F 50% 29.99 in 10.0 mi SW 3.5 mph - N/A   Mostly Cloudy
7:15 PM 73.4 °F 53.6 °F 50% 30.00 in 10.0 mi SSW 3.5 mph - N/A   Overcast
7:35 PM 73.4 °F 53.6 °F 50% 30.00 in 10.0 mi Calm Calm - N/A   Mostly Cloudy
7:55 PM 71.6 °F 53.6 °F 53% 30.00 in 10.0 mi South 3.5 mph - N/A   Mostly Cloudy
8:15 PM 71.6 °F 53.6 °F 53% 30.01 in 10.0 mi SW 3.5 mph - N/A   Mostly Cloudy
8:35 PM 69.8 °F 55.4 °F 60% 30.02 in 10.0 mi Calm Calm - N/A   Scattered Clouds
8:55 PM 69.8 °F 55.4 °F 60% 30.02 in 10.0 mi Calm Calm - N/A   Scattered Clouds
9:15 PM 69.8 °F 55.4 °F 60% 30.02 in 10.0 mi SW 3.5 mph - N/A   Clear
9:35 PM 68.0 °F 55.4 °F 64% 30.03 in 10.0 mi Calm Calm - N/A   Clear
9:55 PM 66.2 °F 55.4 °F 68% 30.04 in 10.0 mi SSW 3.5 mph - N/A   Clear
10:15 PM 64.4 °F 55.4 °F 73% 30.04 in 10.0 mi SSW 3.5 mph - N/A   Clear
10:35 PM 64.4 °F 57.2 °F 77% 30.05 in 10.0 mi Calm Calm - N/A   Clear
10:55 PM 66.2 °F 57.2 °F 73% 30.05 in 10.0 mi Calm Calm - N/A   Clear
11:15 PM 64.4 °F 57.2 °F 77% 30.05 in 10.0 mi SSW 3.5 mph - N/A   Clear
11:35 PM 64.4 °F 59.0 °F 83% 30.04 in 10.0 mi SSW 5.8 mph - N/A   Clear
11:55 PM 66.2 °F 59.0 °F 78% 30.05 in 10.0 mi SSW 5.8 mph - N/A   Clear